When you browse on this site, cookies collect data to enhance your experience and personalize the content and advertising you see.
Visit our Privacy Policy to learn more. By continuing to use the site, you agree to this use of cookies and data.
  • în România
  • Lista ţărilor
  • Pe 7 zile
  • Temperatura apei
  • Meteo pe hartă
  • Widget-uri
  • user-avatar
    Intrare

    Meteo pe oră la Carlisle

    Astăzi, 29 Mai, Vineri

    Timp Temperatura Precipitaţii Vânt Presiune Umiditate
    00:00 +14°C° 0 mm 1 m/s 770 mmHg 89%
    01:00 +14°C° 0 mm 1 m/s 770 mmHg 89%
    02:00 +14°C° 0 mm 1 m/s 769 mmHg 90%
    03:00 +13°C° 0 mm 1 m/s 769 mmHg 91%
    04:00 +14°C° 0 mm 1 m/s 769 mmHg 89%
    05:00 +15°C° 0 mm 1 m/s 769 mmHg 87%
    06:00 +16°C° 0 mm 1 m/s 769 mmHg 86%
    07:00 +18°C° 0 mm 1 m/s 769 mmHg 81%
    08:00 +20°C° 0 mm 1 m/s 769 mmHg 77%
    09:00 +21°C° 0 mm 1 m/s 769 mmHg 72%
    10:00 +22°C° 0 mm 1 m/s 769 mmHg 70%
    11:00 +23°C° 0 mm 2 m/s 768 mmHg 68%
    12:00 +23°C° 0 mm 2 m/s 768 mmHg 65%
    13:00 +23°C° 0 mm 2 m/s 768 mmHg 66%
    14:00 +23°C° 0 mm 2 m/s 768 mmHg 67%
    15:00 +23°C° 0 mm 2 m/s 767 mmHg 67%
    16:00 +23°C° 0 mm 2 m/s 767 mmHg 69%
    17:00 +21°C° 0 mm 2 m/s 767 mmHg 72%
    18:00 +22°C° 0 mm 1 m/s 767 mmHg 74%
    19:00 +20°C° 0 mm 1 m/s 767 mmHg 78%
    20:00 +18°C° 0 mm 1 m/s 767 mmHg 82%
    21:00 +15°C° 0 mm 0 m/s 767 mmHg 86%
    22:00 +15°C° 0 mm 1 m/s 767 mmHg 86%
    23:00 +15°C° 0 mm 1 m/s 767 mmHg 87%

    Mâine, 30 Mai, Sâmbătă

    Timp Temperatura Precipitaţii Vânt Presiune Umiditate
    00:00 +14°C° 0 mm 1 m/s 767 mmHg 88%
    01:00 +14°C° 0 mm 1 m/s 767 mmHg 89%
    02:00 +13°C° 0 mm 1 m/s 767 mmHg 90%
    03:00 +13°C° 0 mm 1 m/s 767 mmHg 91%
    04:00 +14°C° 0 mm 1 m/s 767 mmHg 89%
    05:00 +14°C° 0 mm 1 m/s 767 mmHg 87%
    06:00 +15°C° 0 mm 1 m/s 767 mmHg 86%
    07:00 +16°C° 0 mm 1 m/s 767 mmHg 80%
    08:00 +18°C° 0 mm 2 m/s 767 mmHg 75%
    09:00 +19°C° 0 mm 2 m/s 767 mmHg 69%
    10:00 +19°C° 0 mm 3 m/s 767 mmHg 67%
    11:00 +20°C° 0 mm 3 m/s 767 mmHg 65%
    12:00 +20°C° 0 mm 4 m/s 767 mmHg 62%
    13:00 +20°C° 0 mm 4 m/s 767 mmHg 63%
    14:00 +20°C° 0 mm 3 m/s 767 mmHg 63%
    15:00 +20°C° 0 mm 3 m/s 767 mmHg 64%
    16:00 +20°C° 0 mm 3 m/s 767 mmHg 67%
    17:00 +19°C° 0 mm 3 m/s 767 mmHg 70%
    18:00 +18°C° 0 mm 3 m/s 766 mmHg 72%
    19:00 +16°C° 0 mm 3 m/s 767 mmHg 75%
    20:00 +13°C° 0 mm 3 m/s 767 mmHg 77%
    21:00 +11°C° 0 mm 3 m/s 767 mmHg 79%
    22:00 +11°C° 0 mm 3 m/s 768 mmHg 81%
    23:00 +10°C° 0 mm 3 m/s 768 mmHg 83%

    Poimâine, 31 Mai, Duminică

    Timp Temperatura Precipitaţii Vânt Presiune Umiditate
    00:00 +9°C° 0 mm 3 m/s 768 mmHg 84%
    01:00 +9°C° 0 mm 3 m/s 768 mmHg 85%
    02:00 +8°C° 0 mm 2 m/s 768 mmHg 85%
    03:00 +8°C° 0 mm 2 m/s 768 mmHg 86%
    04:00 +9°C° 0 mm 2 m/s 768 mmHg 84%
    05:00 +10°C° 0 mm 2 m/s 768 mmHg 83%
    06:00 +12°C° 0 mm 2 m/s 768 mmHg 82%
    07:00 +14°C° 0 mm 2 m/s 768 mmHg 77%
    08:00 +14°C° 0 mm 3 m/s 768 mmHg 71%
    09:00 +17°C° 0 mm 3 m/s 768 mmHg 66%
    10:00 +18°C° 0 mm 3 m/s 768 mmHg 62%
    11:00 +19°C° 0 mm 3 m/s 768 mmHg 59%
    12:00 +20°C° 0 mm 2 m/s 768 mmHg 55%
    13:00 +20°C° 0 mm 2 m/s 768 mmHg 55%
    14:00 +20°C° 0 mm 2 m/s 768 mmHg 55%
    15:00 +20°C° 0 mm 2 m/s 767 mmHg 55%
    16:00 +20°C° 0 mm 2 m/s 767 mmHg 60%
    17:00 +19°C° 0 mm 2 m/s 767 mmHg 65%
    18:00 +19°C° 0 mm 2 m/s 767 mmHg 69%
    19:00 +17°C° 0 mm 2 m/s 768 mmHg 74%
    20:00 +15°C° 0 mm 2 m/s 768 mmHg 79%
    21:00 +13°C° 0 mm 2 m/s 768 mmHg 84%
    22:00 +12°C° 0 mm 2 m/s 768 mmHg 86%
    23:00 +12°C° 0 mm 2 m/s 768 mmHg 87%

    1 Iunie, Luni

    Timp Temperatura Precipitaţii Vânt Presiune Umiditate
    00:00 +10°C° 0 mm 2 m/s 768 mmHg 89%
    01:00 +10°C° 0 mm 2 m/s 768 mmHg 88%
    02:00 +10°C° 0 mm 2 m/s 767 mmHg 88%
    03:00 +10°C° 0 mm 1 m/s 767 mmHg 88%
    04:00 +11°C° 0 mm 1 m/s 767 mmHg 85%
    05:00 +12°C° 0 mm 1 m/s 767 mmHg 82%
    06:00 +14°C° 0 mm 1 m/s 767 mmHg 79%
    07:00 +15°C° 0 mm 1 m/s 767 mmHg 75%
    08:00 +18°C° 0 mm 1 m/s 767 mmHg 71%
    09:00 +19°C° 0 mm 1 m/s 767 mmHg 67%
    10:00 +20°C° 0 mm 1 m/s 767 mmHg 65%
    11:00 +21°C° 0 mm 1 m/s 767 mmHg 63%
    12:00 +22°C° 0 mm 1 m/s 767 mmHg 61%
    13:00 +21°C° 0.1 mm 1 m/s 766 mmHg 63%
    14:00 +20°C° 0.1 mm 2 m/s 766 mmHg 65%
    15:00 +20°C° 0.1 mm 2 m/s 766 mmHg 66%
    16:00 +19°C° 0.1 mm 2 m/s 765 mmHg 70%
    17:00 +19°C° 0.1 mm 2 m/s 765 mmHg 73%
    18:00 +19°C° 0.1 mm 1 m/s 765 mmHg 77%
    19:00 +18°C° 0 mm 1 m/s 765 mmHg 80%
    20:00 +15°C° 0 mm 1 m/s 765 mmHg 83%
    21:00 +12°C° 0 mm 0 m/s 765 mmHg 86%
    22:00 +12°C° 0 mm 0 m/s 765 mmHg 87%
    23:00 +13°C° 0 mm 1 m/s 765 mmHg 87%

    2 Iunie, Marţi

    Timp Temperatura Precipitaţii Vânt Presiune Umiditate
    00:00 +12°C° 0 mm 1 m/s 764 mmHg 88%
    01:00 +12°C° 0 mm 1 m/s 764 mmHg 88%
    02:00 +11°C° 0 mm 0 m/s 764 mmHg 87%
    03:00 +11°C° 0 mm 0 m/s 764 mmHg 87%
    04:00 +12°C° 0 mm 0 m/s 763 mmHg 86%
    05:00 +13°C° 0 mm 0 m/s 763 mmHg 84%
    06:00 +14°C° 0 mm 0 m/s 763 mmHg 83%
    07:00 +15°C° 0 mm 0 m/s 763 mmHg 80%
    08:00 +16°C° 0 mm 1 m/s 763 mmHg 77%
    09:00 +18°C° 0 mm 1 m/s 763 mmHg 74%
    10:00 +18°C° 0.2 mm 1 m/s 762 mmHg 75%
    11:00 +19°C° 0.2 mm 1 m/s 762 mmHg 76%
    12:00 +19°C° 0.2 mm 1 m/s 762 mmHg 76%
    13:00 +17°C° 0.5 mm 2 m/s 762 mmHg 80%
    14:00 +17°C° 0.5 mm 2 m/s 761 mmHg 83%
    15:00 +17°C° 0.5 mm 2 m/s 761 mmHg 86%
    16:00 +16°C° 0.6 mm 2 m/s 761 mmHg 88%
    17:00 +14°C° 0.6 mm 3 m/s 761 mmHg 91%
    18:00 +13°C° 0.6 mm 3 m/s 761 mmHg 94%
    19:00 +13°C° 0.3 mm 3 m/s 761 mmHg 94%
    20:00 +12°C° 0.3 mm 4 m/s 761 mmHg 94%
    21:00 +11°C° 0.3 mm 4 m/s 762 mmHg 94%
    22:00 +10°C° 0.1 mm 5 m/s 762 mmHg 94%
    23:00 +9°C° 0.1 mm 5 m/s 762 mmHg 94%

    3 Iunie, Miercuri

    Timp Temperatura Precipitaţii Vânt Presiune Umiditate
    00:00 +9°C° 0.1 mm 5 m/s 762 mmHg 94%
    01:00 +9°C° 0 mm 5 m/s 762 mmHg 93%
    02:00 +8°C° 0 mm 5 m/s 762 mmHg 93%
    03:00 +8°C° 0 mm 5 m/s 762 mmHg 92%
    04:00 +8°C° 0 mm 5 m/s 762 mmHg 91%
    05:00 +9°C° 0 mm 5 m/s 762 mmHg 90%
    06:00 +9°C° 0 mm 5 m/s 762 mmHg 88%
    07:00 +9°C° 0 mm 6 m/s 762 mmHg 86%
    08:00 +10°C° 0 mm 6 m/s 762 mmHg 83%
    09:00 +10°C° 0 mm 7 m/s 762 mmHg 80%
    10:00 +11°C° 0 mm 7 m/s 762 mmHg 78%
    11:00 +11°C° 0 mm 7 m/s 762 mmHg 76%
    12:00 +12°C° 0 mm 7 m/s 762 mmHg 74%
    13:00 +12°C° 0 mm 7 m/s 761 mmHg 74%
    14:00 +12°C° 0 mm 7 m/s 761 mmHg 73%
    15:00 +13°C° 0 mm 6 m/s 761 mmHg 73%
    16:00 +13°C° 0 mm 6 m/s 761 mmHg 74%
    17:00 +11°C° 0 mm 6 m/s 761 mmHg 75%
    18:00 +11°C° 0 mm 6 m/s 761 mmHg 77%
    19:00 +10°C° 0 mm 5 m/s 761 mmHg 79%
    20:00 +10°C° 0 mm 4 m/s 761 mmHg 81%
    21:00 +8°C° 0 mm 4 m/s 761 mmHg 84%
    22:00 +8°C° 0 mm 3 m/s 761 mmHg 87%
    23:00 +7°C° 0 mm 3 m/s 761 mmHg 91%
    Arată mai mult